Location: Burleson Alternative School
(32.5290°N, 97.3406°W)
Time: 02:40:08
(UTC+00:00)

Courier 1B Rocket - Pass Details

Date: 18 November 2024
Orbit: 920 x 1201 km, 28.2° (Epoch: 03 December)

Event Time Altitude Azimuth Distance (km) Brightness Sun altitude
Rises 01:20:58 0° 270° (W) 3,677 9.4 -23.9°
Reaches altitude 10° 01:24:04 10° 259° (WSW) 2,688 8.4 -24.5°
Maximum altitude 01:29:20 27° 203° (SSW) 1,712 6.5 -25.6°
Enters shadow 01:32:49 17° 159° (SSE) 2,165 6.7 -26.4°
